Temp
4 4 6 6 7 9 10 14 17 15 14 19 22 21 23 17 24 24 24 24 24 24 24 24 23 23 21 19 20 22 22 21 21 22 21 21 21 22 18 15 15 16 18 15
4 4 5 6 7 8 10 16 19 15 16 20 21 22 22 23 23 23 23 23 23 23 23 22 21 20 18 19 20 20 21 21 20 21 20 20 20 21 20 16 14 13 16 15
4 4 4 6 7 7 8 16 18 19 18 21 21 22 22 22 21 22 22 22 23 23 22 22 20 20 18 18 19 14 17 20 19 18 17 19 19 18 19 19 16 15 16 16
4 3 4 5 6 7 8 16 18 17 19 20 21 23 23 23 21 22 22 22 22 22 21 21 20 20 19 19 15 18 19 18 17 18 18 19 17 17 18 18 18 16 17 17
3 3 4 5 6 7 10 16 17 18 19 21 21 18 22 23 20 21 22 22 21 22 21 21 20 19 19 19 19 19 19 16 17 15 16 15 15 16 18 18 18 19 17 15
3 4 4 5 5 6 13 15 15 16 16 19 21 22 22 22 20 20 22 21 21 19 19 19 19 19 18 18 18 18 18 17 16 15 16 16 14 11 16 18 18 18 16 16
3 3 4 5 5 5 7 12 13 16 20 20 21 22 22 21 21 19 20 20 19 18 20 20 19 19 19 19 18 19 17 16 15 15 15 13 13 15 17 17 17 17 16 16
3 3 4 4 5 5 6 11 12 16 19 21 20 20 20 19 19 19 19 18 19 19 20 19 18 18 18 18 18 18 18 18 16 15 15 13 14 16 16 16 16 17 16 16
3 3 3 4 5 5 5 9 10 12 17 19 21 20 20 19 18 17 17 18 17 18 20 19 18 17 17 17 17 18 18 18 16 16 16 13 15 17 17 18 16 17 16 16
2 3 3 3 4 5 5 9 8 11 16 18 18 20 20 21 20 18 16 16 16 17 19 20 19 17 17 17 16 16 16 17 15 15 15 14 16 17 17 13 14 17 17 17
2 2 2 3 4 5 5 9 9 10 16 16 16 17 18 20 20 18 17 17 17 18 19 19 18 19 17 15 15 15 16 16 14 16 14 13 17 17 14 17 17 17 17 16
2 1 1 2 4 5 4 8 9 9 11 15 13 13 14 14 16 20 17 19 19 20 20 19 18 18 17 17 16 15 14 14 15 15 14 16 17 16 17 17 17 17 16 18
2 1 1 2 3 4 4 7 10 10 16 16 16 16 14 14 14 14 19 18 18 18 17 19 19 18 18 17 17 14 14 14 14 16 15 16 17 17 17 17 17 18 18 18
1 1 1 2 3 4 4 6 10 10 14 18 15 14 14 13 14 15 16 16 16 17 19 18 19 17 16 17 17 16 15 15 16 17 17 16 17 16 17 17 18 18 17 16
1 1 1 2 3 4 4 5 8 9 12 17 16 15 14 14 15 16 16 16 17 18 18 18 17 16 15 16 16 13 16 15 17 15 16 15 15 16 17 17 17 17 17 16
1 1 2 2 3 4 4 10 10 9 10 15 17 15 15 15 16 16 17 17 18 19 18 17 17 16 16 17 17 16 16 17 17 16 17 16 16 16 17 17 16 15 15 14
1 1 1 2 3 3 7 9 8 9 11 15 16 16 16 15 16 16 17 17 17 18 17 17 17 16 15 18 16 16 16 17 16 17 16 15 17 16 16 16 15 14 14 13
1 1 2 2 3 3 5 8 8 7 12 16 17 16 15 15 17 16 17 17 18 17 17 16 17 16 17 17 17 16 17 17 16 17 17 17 16 16 15 15 14 14 14 12
1 1 1 2 3 7 11 10 10 9 13 16 17 16 15 16 18 17 17 18 17 16 17 18 17 18 16 17 16 16 16 16 16 17 16 16 15 14 15 14 14 13 13 12
1 1 1 4 8 9 10 9 12 13 15 16 17 19 16 18 17 18 18 18 18 17 18 17 17 18 16 17 17 16 17 17 17 15 15 15 14 14 14 14 13 12 12 11
1 1 5 7 7 8 11 11 11 14 15 17 18 18 16 19 18 18 19 18 18 17 17 17 18 17 16 17 16 17 16 16 16 16 15 15 13 13 13 12 11 11 10 10
1 1 2 6 7 8 9 11 15 15 17 18 17 17 18 17 19 18 17 18 17 18 16 16 17 18 17 16 16 16 16 15 15 14 14 13 13 12 11 11 10 10 10 9
0 2 5 6 6 8 10 9 15 16 17 17 18 17 17 16 18 17 18 17 17 17 16 16 18 17 17 16 16 15 14 14 14 13 13 12 11 11 11 10 10 9 9 9
2 3 6 6 9 12 15 17 18 18 18 17 18 17 18 18 17 17 17 17 16 16 16 16 17 16 16 16 15 15 14 13 12 12 11 11 11 10 10 10 10 9 8 6
3 4 8 10 15 17 18 18 15 17 18 18 18 17 18 18 15 17 15 14 16 18 19 18 18 16 16 15 15 14 13 12 12 11 11 11 10 10 10 10 9 8 7 6
3 6 11 17 16 14 13 15 16 17 18 19 20 19 18 17 18 16 15 17 18 20 21 18 17 16 15 14 14 13 12 12 12 11 11 11 11 11 10 9 8 8 8 7
5 11 15 16 16 13 13 16 17 18 18 19 20 18 18 19 17 18 20 19 21 20 18 17 16 15 15 14 13 13 12 12 12 11 11 11 11 10 10 9 9 8 8 7
Height
835 832 830 827 825 824 822 816 804 804 805 802 787 790 784 790 778 779 780 779 779 781 784 786 788 790 800 806 802 796 793 795 798 788 794 795 795 794 810 835 836 830 820 841
836 832 830 827 825 825 824 809 795 802 804 794 786 781 784 780 784 784 783 785 785 784 787 795 795 800 812 809 804 802 798 797 804 795 798 802 803 799 803 828 836 842 831 839
836 833 830 828 826 826 826 811 797 796 800 786 782 780 782 786 789 790 787 789 787 789 792 793 801 804 812 811 809 820 812 799 806 812 818 805 806 812 809 812 824 830 829 830
837 834 831 828 826 826 827 808 793 793 789 787 782 775 774 781 791 788 786 790 789 789 798 798 804 804 810 811 819 811 808 812 818 815 811 809 816 822 814 816 813 826 824 828
836 834 832 829 827 825 824 805 797 793 787 780 784 789 781 777 794 791 789 789 794 791 798 800 805 806 808 811 807 810 809 821 821 831 825 827 832 826 818 816 814 814 825 837
836 834 832 830 827 826 815 809 808 804 791 787 783 778 777 779 792 794 789 793 798 805 809 807 809 811 813 815 814 814 814 820 827 832 828 828 839 852 833 821 817 819 833 837
836 834 832 829 828 827 825 817 816 802 782 780 777 774 779 786 788 798 799 797 805 813 810 811 813 813 814 815 818 812 820 825 828 834 831 844 851 840 834 832 829 828 834 836
835 834 832 829 828 827 827 822 818 802 783 775 783 783 786 793 795 799 802 806 807 811 810 814 818 819 817 821 821 819 817 819 829 835 836 852 846 839 840 836 836 832 836 836
834 833 831 829 827 827 826 823 822 818 796 783 778 786 788 794 801 809 812 815 817 817 809 814 817 822 823 826 824 821 818 817 830 828 830 848 843 835 836 832 837 835 838 837
833 832 830 828 826 826 825 821 821 818 798 793 792 787 787 784 792 803 815 819 820 819 808 807 812 823 825 824 829 831 828 827 834 834 839 847 840 838 838 849 850 837 838 836
831 830 829 827 825 826 824 820 820 819 799 798 800 796 793 790 792 803 809 817 815 814 808 807 813 813 824 835 840 838 834 831 842 834 845 854 836 839 847 838 838 837 836 838
829 828 827 826 824 825 824 822 818 819 815 803 806 805 803 801 800 795 807 802 804 804 803 807 811 814 823 823 831 839 845 843 840 842 843 838 838 842 838 839 839 838 839 834
827 827 826 824 822 823 824 821 818 817 805 803 802 802 806 804 803 804 803 804 806 809 810 806 809 814 815 821 824 839 843 844 842 836 843 841 840 840 841 841 841 838 838 839
825 825 824 822 821 822 822 821 818 816 806 790 802 807 806 807 806 807 807 806 810 812 809 809 807 816 824 820 822 831 838 840 836 833 837 841 842 845 844 842 841 842 844 846
823 823 822 820 819 820 819 818 817 816 815 790 800 805 807 807 807 808 808 809 809 809 810 809 816 824 829 826 829 843 834 838 831 839 839 844 847 847 844 844 846 848 847 848
821 821 820 819 818 820 818 814 810 812 814 800 795 807 808 807 808 808 809 809 809 807 808 815 819 824 823 820 821 829 832 831 835 838 840 846 849 851 850 850 852 853 854 855
819 818 818 816 817 818 815 809 811 810 813 800 799 801 808 808 809 810 811 812 811 808 813 814 818 821 824 814 820 829 834 836 839 840 846 850 848 852 853 855 856 859 860 861
817 816 815 814 815 815 811 806 808 809 809 796 790 797 805 808 805 808 809 809 810 814 815 818 815 824 818 817 822 830 833 837 841 842 844 845 850 854 857 858 861 863 864 866
815 814 813 813 812 808 803 804 805 807 807 790 786 792 795 802 797 802 807 804 808 815 811 811 815 811 817 815 824 830 834 838 841 844 849 853 856 860 860 862 865 867 870 871
814 814 814 808 800 801 801 804 804 805 795 791 779 773 789 791 795 795 802 800 803 809 808 815 812 805 818 817 825 832 835 838 843 850 853 856 861 863 865 868 871 872 874 876
812 812 805 797 798 803 799 794 797 790 785 777 773 775 785 786 788 793 793 798 799 803 806 808 805 809 817 820 828 834 838 842 846 848 853 858 865 869 872 875 877 879 880 881
810 808 800 798 800 799 793 787 776 773 764 765 772 776 781 789 786 790 799 794 801 799 807 807 802 799 811 821 828 835 840 846 851 854 859 865 869 873 876 879 881 883 884 885
809 803 793 792 793 783 777 778 756 752 754 761 765 776 781 790 785 790 791 797 799 800 806 802 794 800 812 820 829 838 844 851 855 860 864 869 873 877 880 883 885 887 888 888
806 794 785 781 768 755 740 737 736 741 749 757 764 772 772 778 783 787 792 793 798 802 799 793 789 800 812 822 831 839 847 854 859 865 869 874 877 881 884 886 888 890 891 892
799 783 760 751 731 726 725 728 740 745 750 754 763 770 769 776 788 783 793 801 794 781 772 775 783 799 811 822 832 841 849 856 862 867 872 876 880 883 886 889 891 893 894 895
789 768 743 718 724 735 738 735 738 743 747 754 751 759 768 772 772 781 785 782 772 760 756 772 788 801 814 824 834 842 850 857 863 868 873 877 881 885 888 891 893 895 896 896
772 738 725 721 723 733 736 732 733 739 744 743 745 756 759 759 767 768 759 761 752 759 768 780 793 804 815 825 834 843 851 857 863 869 874 878 882 886 889 892 894 896 898 898
Wind_Speed
18 18 14 14 9 10 7 5 4 4 5 5 7 8 5 3 4 2 2 4 4 3 1 3 3 2 7 4 4 3 2 5 8 8 8 5 9 6 7 2 3 2 5 3
17 18 15 14 7 7 9 4 4 4 6 5 7 4 6 2 5 1 2 1 3 1 1 3 2 2 3 2 4 8 3 4 7 9 9 8 7 9 5 9 3 3 2 3
16 18 16 14 6 6 5 4 4 4 6 8 7 10 10 8 0 3 1 2 1 2 2 1 1 3 2 2 5 4 3 5 6 8 6 7 4 2 8 11 4 5 2 8
14 16 16 14 7 5 4 4 4 4 6 9 9 7 7 11 6 2 2 3 2 2 2 2 1 1 5 3 4 3 4 2 1 6 3 3 6 1 4 5 7 3 8 8
12 14 16 13 9 5 6 4 4 3 4 5 12 7 8 11 7 3 4 1 2 1 3 4 2 2 3 3 2 4 4 1 2 6 11 12 12 8 9 7 8 12 13 6
12 14 16 12 9 6 6 1 5 5 4 8 9 10 7 8 10 5 3 10 11 12 11 11 10 9 6 5 6 4 2 2 1 4 8 13 9 6 4 7 10 8 7 3
10 13 15 12 9 5 9 7 8 5 4 8 9 6 6 11 5 10 8 7 10 9 14 14 13 12 12 9 7 5 6 4 3 3 4 2 2 0 3 8 9 10 9 7
9 11 13 13 8 8 6 7 5 4 4 8 4 8 11 12 13 12 7 3 12 12 10 8 6 5 7 10 9 6 5 2 3 2 8 6 2 4 1 2 4 10 5 6
9 11 13 12 8 9 5 9 5 6 7 3 5 10 14 13 12 10 16 16 10 2 5 3 2 2 2 3 5 3 3 2 3 1 3 2 5 6 1 4 3 7 5 8
9 11 12 12 7 9 6 5 3 6 5 3 4 5 10 7 9 6 12 8 6 4 5 4 2 3 1 2 2 2 4 3 4 2 4 2 4 3 2 3 4 4 5 6
10 10 11 12 6 9 5 5 5 7 4 5 3 2 5 7 7 9 12 7 4 6 4 2 2 3 3 4 0 3 0 1 2 3 3 2 7 5 1 5 4 3 5 6
10 8 12 12 6 8 4 8 3 6 8 5 2 2 4 5 7 3 14 3 12 4 2 2 3 4 4 8 4 4 3 1 1 2 3 5 5 2 3 4 3 4 4 8
8 8 11 13 7 10 9 9 5 6 5 5 7 6 4 4 4 3 6 1 4 3 4 2 2 3 2 4 4 6 4 4 3 4 7 7 6 4 5 5 6 5 8 8
6 8 10 14 8 13 11 10 6 9 8 3 4 3 2 3 2 2 2 12 7 7 4 1 1 3 3 2 3 3 0 8 6 7 10 8 8 5 2 3 6 7 9 9
6 8 12 15 10 11 10 12 13 12 8 2 6 8 6 4 6 6 7 12 8 6 4 2 2 3 3 3 4 4 6 6 5 4 10 4 7 6 4 9 9 9 9 8
6 9 14 15 10 11 6 3 13 16 9 4 5 5 5 8 10 12 10 8 3 1 2 3 3 2 2 4 3 7 7 7 6 8 9 11 9 7 7 9 9 11 11 11
7 11 15 12 11 12 9 3 3 8 8 3 6 6 5 12 11 8 6 6 2 2 3 1 3 4 3 2 2 14 11 9 8 11 13 10 10 7 8 8 9 10 12 13
8 12 15 8 13 14 14 13 8 8 7 6 3 4 7 10 7 5 3 4 4 2 3 3 4 4 3 1 10 15 13 12 11 9 4 10 10 10 8 8 9 10 10 13
9 14 7 7 7 7 5 9 9 16 6 3 4 7 5 6 5 6 4 3 3 2 3 3 4 3 2 6 18 16 14 11 12 11 11 9 8 8 7 10 11 11 11 13
9 3 2 3 8 8 9 6 6 5 5 4 5 6 5 10 9 5 5 3 4 4 3 5 4 3 4 13 16 14 12 13 13 11 9 10 9 8 11 11 13 13 13 12
1 3 4 1 14 7 4 3 4 5 4 5 4 8 9 9 7 7 1 4 4 4 4 4 5 4 9 17 17 13 14 15 10 6 12 13 13 12 12 14 14 12 12 12
6 10 12 3 2 3 5 5 5 7 6 8 10 12 11 5 3 3 3 3 2 3 6 3 3 5 18 18 18 15 16 13 12 14 18 18 17 17 16 14 12 12 11 10
9 5 4 4 5 7 7 9 8 7 8 9 14 12 7 4 3 3 3 4 3 6 4 4 4 14 17 19 17 16 18 17 18 19 20 21 20 17 15 14 12 11 12 10
3 3 6 6 6 7 8 11 11 8 9 15 14 9 5 4 4 3 5 3 5 4 5 6 8 20 20 19 17 17 17 21 22 22 22 22 19 17 15 12 12 11 11 11
4 5 6 10 11 9 4 8 8 9 13 13 12 5 4 4 4 3 4 5 5 6 5 6 13 21 21 21 20 18 21 23 23 24 22 20 19 17 15 13 12 11 10 9
4 7 6 9 8 5 4 7 10 12 12 12 7 5 6 5 4 6 6 6 5 4 5 11 18 21 21 21 24 26 27 27 26 23 23 21 18 17 16 13 11 9 9 9
6 7 6 5 5 8 8 9 12 17 13 11 4 7 6 6 4 5 6 4 3 8 11 14 21 22 21 27 28 30 30 28 26 25 22 20 19 19 16 13 10 9 9 9
Wind_Direction
348 349 341 337 304 320 306 279 235 136 159 213 207 223 231 353 158 200 240 289 323 295 16 276 288 310 29 358 314 271 79 291 261 237 72 342 302 264 150 195 192 250 278 133
347 349 342 340 316 349 315 249 265 136 199 221 203 166 181 216 191 187 234 161 339 319 332 279 322 72 37 339 291 354 32 252 271 231 190 195 238 205 234 127 168 211 242 128
346 349 343 345 324 338 316 274 206 164 207 277 278 187 199 163 143 124 72 111 233 204 193 321 143 131 73 15 34 314 295 281 297 313 350 310 219 240 234 214 211 197 185 140
343 349 343 349 329 331 306 242 262 9 191 215 231 201 194 187 171 163 215 148 297 267 193 172 176 104 159 136 136 225 291 336 328 292 319 4 50 353 235 184 247 168 156 115
338 345 344 346 334 310 257 294 301 183 305 262 208 189 207 196 126 299 147 220 137 155 85 332 119 157 338 19 126 3 13 187 121 72 98 101 90 63 99 109 121 125 98 66
332 340 344 340 342 323 281 97 262 276 132 198 206 188 178 166 147 45 128 122 107 93 82 80 77 75 78 79 11 20 33 141 196 136 156 141 77 357 51 82 58 104 92 183
322 337 343 343 341 322 308 345 298 271 220 203 201 158 157 150 156 141 115 125 116 114 113 107 100 94 88 80 64 22 76 102 126 138 225 72 114 72 88 76 56 60 67 33
309 328 337 337 326 338 273 301 307 298 274 201 143 165 120 119 117 109 121 150 122 141 154 134 132 123 119 81 45 56 22 81 66 94 70 121 136 177 50 52 89 80 45 23
297 318 333 331 306 319 282 269 288 278 299 158 154 152 154 137 124 106 98 111 119 190 211 208 178 81 37 92 127 20 100 1 130 337 100 106 147 110 3 303 154 58 0 9
287 308 324 331 307 301 280 288 275 274 271 95 286 171 173 153 163 128 150 150 176 244 204 182 133 109 27 147 126 87 79 99 89 108 92 143 185 119 262 275 69 73 344 338
280 299 328 332 299 292 287 296 247 266 290 104 329 324 145 153 158 162 154 169 201 191 211 179 154 139 118 111 143 139 251 289 116 263 111 173 165 182 332 51 103 354 12 341
278 300 331 331 283 282 294 271 241 239 269 31 39 17 355 7 3 123 173 353 155 162 196 210 127 154 165 156 131 164 187 302 143 356 57 103 122 137 101 39 357 22 349 23
274 301 328 329 290 259 317 266 284 231 254 175 187 144 63 30 29 1 188 178 89 160 335 108 80 122 154 171 145 131 158 156 172 164 137 145 144 132 66 0 344 15 33 30
269 306 320 325 277 252 304 240 261 263 283 220 103 166 147 339 121 159 351 105 101 126 185 125 158 118 275 119 136 130 297 172 165 126 142 128 111 45 1 129 77 54 50 36
273 309 311 321 269 259 292 241 247 251 295 348 120 130 46 112 141 146 126 138 144 160 166 164 88 95 133 125 140 138 185 187 179 130 109 74 91 91 63 69 51 37 35 51
284 305 306 317 245 266 297 248 221 222 233 281 155 80 102 123 129 131 127 122 125 131 111 99 93 83 226 185 152 149 173 117 99 132 100 101 109 112 84 65 54 56 52 41
287 295 306 296 239 280 244 301 8 185 226 250 138 145 136 137 137 137 128 142 93 94 124 86 126 162 232 193 129 155 156 143 130 121 129 134 152 103 79 74 80 73 62 52
283 295 306 257 251 283 265 255 195 181 221 257 168 103 153 194 159 141 189 147 161 40 97 174 164 146 250 195 141 149 147 144 142 144 102 108 104 93 78 77 78 76 68 65
282 301 280 266 241 210 222 218 236 195 280 263 196 172 151 184 153 118 167 222 139 156 166 148 190 143 209 141 152 151 153 149 148 129 115 114 110 89 91 88 79 79 79 74
300 314 217 232 193 200 141 168 159 202 209 225 237 178 140 177 167 154 141 201 150 171 105 134 230 136 102 154 150 150 153 143 132 141 140 127 102 102 88 85 88 87 77 68
158 223 230 103 125 155 243 203 161 209 218 200 177 172 150 174 164 149 116 156 174 202 138 217 184 179 165 157 149 153 148 144 139 126 134 111 128 113 108 102 96 86 77 67
213 316 285 168 126 223 196 197 200 202 202 155 169 156 142 130 156 136 183 146 179 179 150 206 212 143 157 158 154 145 148 129 121 122 120 126 119 118 115 106 97 88 79 68
306 259 212 167 194 205 197 189 180 178 145 167 151 141 143 155 211 107 166 162 148 133 182 214 186 146 155 154 149 147 138 131 126 123 123 122 120 118 113 108 100 93 80 68
244 235 193 215 185 216 210 181 165 130 153 151 153 149 155 115 147 161 150 100 156 203 210 211 161 155 156 151 148 142 138 136 132 129 130 126 125 120 115 108 105 96 82 66
248 241 215 201 220 194 163 130 113 152 148 155 142 125 143 126 131 156 126 171 218 220 211 149 149 152 149 149 146 144 141 140 137 137 135 133 133 128 121 115 106 97 90 79
251 230 256 193 170 155 168 162 141 155 152 150 164 141 162 174 156 173 192 188 221 192 136 135 143 147 148 146 146 145 143 143 143 140 140 140 139 135 128 121 111 103 93 83
253 234 237 219 171 171 183 167 151 155 160 168 147 164 172 126 190 199 184 212 104 108 129 136 143 145 145 145 144 145 145 146 144 143 146 146 143 139 138 131 129 119 105 96